Tracking 18942 objects as of 17-Jan-2018
HD Live streaming from Space Station
objects crossing your sky now

FENGYUN 1C DEB

Track FENGYUN 1C DEB now!
10-day predictions


NORAD ID: 30389
Int'l Code: 1999-025ADC
Perigee: 817.7 km
Apogee: 842.3 km
Inclination: 98.9 °
Period: 101.4 minutes
Semi major axis: 7201 km
RCS: 0.044 m2 (small)
Launch date: May 10, 1999
Source: People's Republic of China (PRC)
Launch site: Taiyaun Space Center, China (TSC)

Note: This is SATELLITE DEBRIS
aabbcc
Your satellite tracking list
Your tracking list is empty




NASA's NSSDC Master Catalog

Two Line Element Set (TLE):
1 30389U 99025ADC 18016.52206403  .00000821  00000-0  40138-3 0  9996
2 30389  98.9449   6.0858 0017065 295.6369 185.1937 14.20736498566469
Source of the keplerian elements: AFSPC